{"data":{"norad_id":68486,"epoch":"2026-05-24T20:05:01.613472Z","epoch_age_seconds":92236,"freshness":"FRESH","line1":"1 68486U 26067BY  26144.83682423  .00001636  00000+0  16738-3 0  9999","line2":"2 68486  97.7568 103.4485 0002475  69.9922 290.1564 14.91882062  8248","mean_motion":14.91882062,"eccentricity":0.0002475,"inclination_deg":97.7568,"raan_deg":103.4485,"arg_perigee_deg":69.9922,"mean_anomaly_deg":290.1564,"bstar":0.00016738,"rev_number":824,"period_min":96.522375104474,"perigee_km":590.34226376833,"apogee_km":593.79251494106,"semimajor_km":6970.2043893547,"source":"CELESTRAK","updated_at":"2026-05-25T13:38:07.871915Z"}}